RYR7ZA EPKK-LGTS

Flight info

Callsign RYR7ZA
Flight time 1h 35m
Altitude 32000
Route BABKO DCT NIDOK/N0461F370 DCT AMRAX DCT PARAK DCT IRGOR DCT IBISI DCT MAKED P36 ALIKO
Aircraft B738/M-SDE2E3FGHIRWXY/LB1

Departure

Time 2026-05-07 13:13
Airport Kraków John Paul II International Airport (EPKK)

Arrival

Time 2026-05-07 14:48
Airport Thessaloniki Macedonia International Airport (LGTS)
Time Latitude Longitude Altitude Speed Heading
2026-05-07 12:44 50.07592 19.80231 799 ft 0 kts 347°
2026-05-07 13:07 50.07591 19.80231 799 ft 0 kts 347°
2026-05-07 13:08 50.07592 19.80231 799 ft 1 kts 346°
2026-05-07 13:09 50.07606 19.80226 799 ft 4 kts 347°
2026-05-07 13:09 50.07645 19.80253 799 ft 10 kts 56°
2026-05-07 13:09 50.07672 19.80365 799 ft 11 kts 50°
2026-05-07 13:09 50.07746 19.80367 799 ft 11 kts 345°
2026-05-07 13:10 50.07821 19.80344 799 ft 11 kts 347°
2026-05-07 13:10 50.07833 19.80340 799 ft 0 kts 347°
2026-05-07 13:11 50.07840 19.80337 799 ft 4 kts 347°
2026-05-07 13:11 50.07902 19.80317 799 ft 12 kts 350°
2026-05-07 13:11 50.07985 19.80283 798 ft 12 kts 338°
2026-05-07 13:12 50.08014 19.80223 799 ft 0 kts 261°
2026-05-07 13:12 50.07999 19.80115 800 ft 41 kts 258°
2026-05-07 13:12 50.07875 19.79218 799 ft 126 kts 258°
2026-05-07 13:12 50.07619 19.77569 1013 ft 178 kts 256°
2026-05-07 13:13 50.07293 19.75602 1791 ft 193 kts 256°
2026-05-07 13:13 50.06982 19.73635 2915 ft 184 kts 256°
2026-05-07 13:13 50.06667 19.71630 3631 ft 197 kts 256°
2026-05-07 13:13 50.06325 19.69478 3993 ft 218 kts 257°
2026-05-07 13:14 50.05893 19.67096 4513 ft 230 kts 240°
2026-05-07 13:14 50.04748 19.65389 5462 ft 233 kts 209°
2026-05-07 13:14 50.03104 19.64762 5984 ft 259 kts 181°
2026-05-07 13:14 50.01306 19.65139 6765 ft 269 kts 172°
2026-05-07 13:15 49.99467 19.65783 7661 ft 272 kts 169°
2026-05-07 13:15 49.97623 19.66463 8620 ft 273 kts 170°
2026-05-07 13:15 49.95764 19.67130 9544 ft 275 kts 170°
2026-05-07 13:15 49.93874 19.67785 10287 ft 284 kts 170°
2026-05-07 13:16 49.91860 19.68469 10534 ft 309 kts 170°
2026-05-07 13:16 49.89672 19.69188 10734 ft 333 kts 173°
2026-05-07 13:16 49.87305 19.69082 10922 ft 350 kts 195°
2026-05-07 13:16 49.84878 19.68238 11309 ft 365 kts 190°
2026-05-07 13:17 49.82329 19.67751 11936 ft 371 kts 187°
2026-05-07 13:17 49.79751 19.67368 12718 ft 373 kts 187°
2026-05-07 13:17 49.77162 19.66989 13487 ft 375 kts 187°
2026-05-07 13:17 49.74551 19.66590 14153 ft 379 kts 187°
2026-05-07 13:18 49.71920 19.66168 14815 ft 382 kts 187°
2026-05-07 13:18 49.69271 19.65707 15489 ft 383 kts 188°
2026-05-07 13:18 49.66614 19.65224 16149 ft 386 kts 188°
2026-05-07 13:18 49.63932 19.64735 16734 ft 390 kts 188°
2026-05-07 13:19 49.61234 19.64221 17318 ft 392 kts 189°
2026-05-07 13:19 49.58521 19.63702 17945 ft 394 kts 189°
2026-05-07 13:19 49.55787 19.63194 18500 ft 398 kts 188°
2026-05-07 13:19 49.53032 19.62683 19033 ft 400 kts 188°
2026-05-07 13:20 49.50258 19.62174 19513 ft 403 kts 189°
2026-05-07 13:20 49.47460 19.61650 19953 ft 407 kts 189°
2026-05-07 13:20 49.44641 19.61121 20465 ft 409 kts 189°
2026-05-07 13:20 49.41810 19.60598 20964 ft 411 kts 188°
2026-05-07 13:21 49.38964 19.60072 21469 ft 413 kts 189°
2026-05-07 13:21 49.36104 19.59537 22005 ft 416 kts 188°
2026-05-07 13:21 49.33218 19.59009 22453 ft 418 kts 188°
2026-05-07 13:21 49.30318 19.58488 22879 ft 421 kts 188°
2026-05-07 13:22 49.27401 19.57950 23283 ft 423 kts 189°
2026-05-07 13:22 49.24474 19.57395 23689 ft 425 kts 189°
2026-05-07 13:22 49.21530 19.56851 24081 ft 427 kts 188°
2026-05-07 13:22 49.18569 19.56308 24428 ft 428 kts 188°
2026-05-07 13:23 49.15608 19.55761 24807 ft 430 kts 188°
2026-05-07 13:23 49.12671 19.55220 25151 ft 431 kts 188°
2026-05-07 13:23 49.09684 19.54670 25481 ft 433 kts 189°
2026-05-07 13:23 49.06682 19.54119 25785 ft 435 kts 189°
2026-05-07 13:24 49.03669 19.53567 26106 ft 437 kts 189°
2026-05-07 13:24 49.00646 19.53014 26418 ft 438 kts 189°
2026-05-07 13:24 48.97620 19.52467 26772 ft 438 kts 189°
2026-05-07 13:24 48.94601 19.51919 27220 ft 436 kts 189°
2026-05-07 13:25 48.91600 19.51373 27848 ft 432 kts 189°
2026-05-07 13:25 48.88615 19.50860 28306 ft 432 kts 189°
2026-05-07 13:25 48.85630 19.50323 28728 ft 432 kts 189°
2026-05-07 13:25 48.82652 19.49776 29201 ft 430 kts 189°
2026-05-07 13:26 48.79688 19.49231 29673 ft 428 kts 189°
2026-05-07 13:26 48.76737 19.48691 30089 ft 427 kts 189°
2026-05-07 13:26 48.73792 19.48155 30458 ft 425 kts 189°
2026-05-07 13:26 48.70857 19.47624 30869 ft 423 kts 189°
2026-05-07 13:27 48.67944 19.47093 31233 ft 421 kts 190°
2026-05-07 13:27 48.65033 19.46568 31582 ft 420 kts 190°
2026-05-07 13:27 48.62124 19.46049 31855 ft 421 kts 190°
2026-05-07 13:27 48.59207 19.45526 31950 ft 425 kts 190°
2026-05-07 13:28 48.53368 19.44478 31974 ft 424 kts 190°
2026-05-07 13:28 48.47556 19.43440 31966 ft 418 kts 190°
2026-05-07 13:29 48.41768 19.42407 31987 ft 419 kts 190°
2026-05-07 13:29 48.35969 19.41372 31970 ft 420 kts 190°
2026-05-07 13:30 48.30155 19.40337 31971 ft 421 kts 190°
2026-05-07 13:30 48.24336 19.39306 31970 ft 421 kts 190°
2026-05-07 13:31 48.18523 19.38273 31976 ft 420 kts 190°
2026-05-07 13:31 48.12715 19.37245 31972 ft 421 kts 190°
2026-05-07 13:32 48.06898 19.36224 31971 ft 421 kts 190°
2026-05-07 13:32 48.01079 19.35220 31973 ft 420 kts 190°
2026-05-07 13:33 47.95271 19.34230 31960 ft 420 kts 190°
2026-05-07 13:33 47.89463 19.33244 31971 ft 419 kts 190°
2026-05-07 13:34 47.80776 19.31784 31976 ft 418 kts 190°
2026-05-07 13:35 47.74992 19.30816 31973 ft 418 kts 190°
2026-05-07 13:35 47.69206 19.29839 31986 ft 419 kts 190°
2026-05-07 13:36 47.63396 19.28854 31986 ft 421 kts 190°
2026-05-07 13:36 47.57602 19.27870 31999 ft 423 kts 190°
2026-05-07 13:37 47.51706 19.26868 31997 ft 424 kts 190°
2026-05-07 13:37 47.45872 19.25878 31993 ft 425 kts 190°
2026-05-07 13:38 47.39994 19.24883 31997 ft 425 kts 190°
2026-05-07 13:38 47.34123 19.23895 31990 ft 424 kts 190°
2026-05-07 13:39 47.28261 19.22910 31994 ft 424 kts 190°
2026-05-07 13:39 47.22405 19.21928 31990 ft 423 kts 190°
2026-05-07 13:40 47.16554 19.20949 31989 ft 423 kts 190°
2026-05-07 13:40 47.10717 19.19974 31988 ft 422 kts 190°
2026-05-07 13:41 47.04875 19.18999 31983 ft 422 kts 190°
2026-05-07 13:41 46.99043 19.18027 31984 ft 422 kts 190°
2026-05-07 13:42 46.93213 19.17055 31982 ft 421 kts 190°
2026-05-07 13:42 46.87382 19.16075 31986 ft 423 kts 190°
2026-05-07 13:43 46.81525 19.15088 31992 ft 424 kts 190°
2026-05-07 13:43 46.75696 19.14104 32000 ft 425 kts 190°
2026-05-07 13:44 46.69805 19.13109 31990 ft 427 kts 190°
2026-05-07 13:44 46.63905 19.12113 31993 ft 427 kts 190°
2026-05-07 13:45 46.58004 19.11118 31988 ft 427 kts 190°
2026-05-07 13:45 46.52105 19.10121 31999 ft 427 kts 190°
2026-05-07 13:46 46.46209 19.09123 32003 ft 427 kts 190°
2026-05-07 13:46 46.40307 19.08125 31997 ft 427 kts 190°
2026-05-07 13:46 46.37331 19.07987 31983 ft 433 kts 177°
2026-05-07 13:47 46.34386 19.09122 32002 ft 444 kts 161°
2026-05-07 13:47 46.31710 19.11445 32016 ft 454 kts 149°
2026-05-07 13:47 46.29226 19.14294 31979 ft 457 kts 146°
2026-05-07 13:48 46.24373 19.20254 31992 ft 458 kts 144°
2026-05-07 13:48 46.19540 19.26280 32003 ft 460 kts 144°
2026-05-07 13:49 46.14703 19.32331 31994 ft 460 kts 144°
2026-05-07 13:49 46.09865 19.38389 31991 ft 461 kts 144°
2026-05-07 13:50 46.05054 19.44402 31981 ft 460 kts 144°
2026-05-07 13:50 46.00211 19.50423 31991 ft 460 kts 144°
2026-05-07 13:51 45.95371 19.56429 31990 ft 460 kts 144°
2026-05-07 13:51 45.90526 19.62431 31988 ft 459 kts 144°
2026-05-07 13:52 45.85687 19.68417 31989 ft 459 kts 144°
2026-05-07 13:52 45.80363 19.73008 32023 ft 441 kts 168°
2026-05-07 13:53 45.74492 19.75579 31985 ft 444 kts 163°
2026-05-07 13:53 45.68916 19.79520 31990 ft 451 kts 153°
2026-05-07 13:54 45.63677 19.84532 31989 ft 454 kts 149°
2026-05-07 13:54 45.58605 19.89846 31961 ft 456 kts 148°
2026-05-07 13:55 45.53508 19.95208 31980 ft 455 kts 148°
2026-05-07 13:55 45.49219 19.99668 31993 ft 455 kts 148°
2026-05-07 13:56 45.44086 20.04962 31998 ft 456 kts 149°
2026-05-07 13:56 45.38941 20.10248 31994 ft 456 kts 149°
2026-05-07 13:57 45.33789 20.15530 31985 ft 456 kts 149°
2026-05-07 13:57 45.28646 20.20792 31991 ft 455 kts 149°
2026-05-07 13:58 45.23538 20.25999 32000 ft 454 kts 149°
2026-05-07 13:58 45.18396 20.31220 32002 ft 454 kts 149°
2026-05-07 13:59 45.13270 20.36427 32003 ft 453 kts 149°
2026-05-07 13:59 45.08156 20.41614 31993 ft 451 kts 149°
2026-05-07 14:00 45.03066 20.46764 32003 ft 449 kts 149°
2026-05-07 14:00 44.97995 20.51885 32017 ft 447 kts 149°
2026-05-07 14:01 44.92941 20.56979 32019 ft 446 kts 149°
2026-05-07 14:01 44.87901 20.62051 31995 ft 445 kts 149°
2026-05-07 14:02 44.82858 20.67107 32009 ft 445 kts 149°
2026-05-07 14:02 44.77797 20.72159 32012 ft 446 kts 149°
2026-05-07 14:03 44.72688 20.77156 32012 ft 446 kts 153°
2026-05-07 14:03 44.67066 20.80583 32029 ft 440 kts 164°
2026-05-07 14:04 44.61333 20.83520 32014 ft 443 kts 163°
2026-05-07 14:04 44.55529 20.86530 32016 ft 445 kts 163°
2026-05-07 14:05 44.49719 20.89575 32025 ft 446 kts 163°
2026-05-07 14:05 44.43892 20.92639 32027 ft 447 kts 163°
2026-05-07 14:06 44.38079 20.95692 32035 ft 445 kts 163°
2026-05-07 14:06 44.32291 20.98725 31998 ft 443 kts 163°
2026-05-07 14:07 44.26530 21.01735 32029 ft 442 kts 163°
2026-05-07 14:07 44.20769 21.04738 32033 ft 442 kts 163°
2026-05-07 14:08 44.15008 21.07734 32044 ft 442 kts 163°
2026-05-07 14:08 44.09234 21.10731 32039 ft 443 kts 163°
2026-05-07 14:09 44.03455 21.13726 32041 ft 443 kts 163°
2026-05-07 14:09 43.97683 21.16710 32039 ft 443 kts 163°
2026-05-07 14:10 43.91906 21.19690 32045 ft 443 kts 163°
2026-05-07 14:10 43.86128 21.22665 32050 ft 443 kts 163°
2026-05-07 14:11 43.80394 21.25609 32040 ft 443 kts 163°
2026-05-07 14:11 43.74623 21.28569 32041 ft 443 kts 163°
2026-05-07 14:12 43.68844 21.31528 32050 ft 442 kts 163°
2026-05-07 14:12 43.63069 21.34477 32058 ft 442 kts 163°
2026-05-07 14:13 43.57287 21.37423 32055 ft 443 kts 163°
2026-05-07 14:13 43.51503 21.40364 32056 ft 443 kts 163°
2026-05-07 14:14 43.45719 21.43299 32074 ft 443 kts 163°
2026-05-07 14:14 43.39922 21.46236 32036 ft 444 kts 163°
2026-05-07 14:15 43.34119 21.49168 32072 ft 444 kts 163°
2026-05-07 14:15 43.28311 21.52098 32070 ft 444 kts 163°
2026-05-07 14:16 43.22545 21.55001 32086 ft 444 kts 163°
2026-05-07 14:16 43.16738 21.57918 32077 ft 445 kts 163°
2026-05-07 14:17 43.10928 21.60832 32085 ft 445 kts 163°
2026-05-07 14:17 43.05109 21.63743 32080 ft 445 kts 163°
2026-05-07 14:18 42.99291 21.66650 32080 ft 444 kts 163°
2026-05-07 14:18 42.93478 21.69522 32091 ft 443 kts 164°
2026-05-07 14:19 42.87652 21.72252 32086 ft 443 kts 165°
2026-05-07 14:19 42.81819 21.74959 32086 ft 442 kts 165°
2026-05-07 14:20 42.75986 21.77662 32101 ft 443 kts 165°
2026-05-07 14:20 42.70144 21.80378 32094 ft 444 kts 164°
2026-05-07 14:21 42.64330 21.83081 32093 ft 444 kts 164°
2026-05-07 14:21 42.58489 21.85792 32103 ft 444 kts 164°
2026-05-07 14:22 42.52649 21.88497 32113 ft 444 kts 164°
2026-05-07 14:22 42.46798 21.91201 32107 ft 444 kts 165°
2026-05-07 14:23 42.40942 21.93902 32118 ft 445 kts 165°
2026-05-07 14:23 42.35068 21.96606 32115 ft 445 kts 165°
2026-05-07 14:24 42.29188 21.99307 32111 ft 446 kts 165°
2026-05-07 14:24 42.23313 22.02001 32112 ft 447 kts 165°
2026-05-07 14:25 42.17410 22.04703 32120 ft 447 kts 165°
2026-05-07 14:25 42.11509 22.07398 32119 ft 448 kts 165°
2026-05-07 14:26 42.05614 22.10113 32123 ft 448 kts 164°
2026-05-07 14:26 41.99696 22.12822 32114 ft 449 kts 165°
2026-05-07 14:27 41.93809 22.15491 32113 ft 449 kts 165°
2026-05-07 14:27 41.87885 22.18172 32115 ft 449 kts 165°
2026-05-07 14:28 41.81955 22.20852 32100 ft 450 kts 164°
2026-05-07 14:28 41.78961 22.22203 31457 ft 456 kts 165°
2026-05-07 14:28 41.75966 22.23555 30727 ft 454 kts 165°
2026-05-07 14:28 41.72974 22.24904 29882 ft 454 kts 165°
2026-05-07 14:29 41.69982 22.26251 28924 ft 455 kts 165°
2026-05-07 14:29 41.66979 22.27603 27986 ft 455 kts 165°
2026-05-07 14:29 41.63976 22.28953 27020 ft 456 kts 165°
2026-05-07 14:29 41.60967 22.30304 26020 ft 457 kts 165°
2026-05-07 14:30 41.57950 22.31657 25198 ft 456 kts 165°
2026-05-07 14:30 41.54956 22.33000 24475 ft 451 kts 165°
2026-05-07 14:30 41.51993 22.34328 23752 ft 448 kts 165°
2026-05-07 14:30 41.49051 22.35644 22912 ft 444 kts 165°
2026-05-07 14:31 41.46130 22.36932 22158 ft 438 kts 165°
2026-05-07 14:31 41.43260 22.38208 21440 ft 433 kts 165°
2026-05-07 14:31 41.40418 22.39478 20747 ft 429 kts 164°
2026-05-07 14:31 41.37596 22.40738 20040 ft 426 kts 164°
2026-05-07 14:32 41.34797 22.41984 19337 ft 423 kts 165°
2026-05-07 14:32 41.32011 22.43223 18638 ft 421 kts 165°
2026-05-07 14:32 41.29235 22.44444 17862 ft 419 kts 165°
2026-05-07 14:32 41.26483 22.45663 17137 ft 416 kts 164°
2026-05-07 14:33 41.23745 22.46890 16419 ft 413 kts 164°
2026-05-07 14:33 41.21037 22.48094 15733 ft 410 kts 165°
2026-05-07 14:33 41.18339 22.49282 15050 ft 407 kts 165°
2026-05-07 14:33 41.15651 22.50438 14364 ft 404 kts 168°
2026-05-07 14:34 41.12916 22.51140 13664 ft 397 kts 178°
2026-05-07 14:34 41.10164 22.51214 12690 ft 395 kts 188°
2026-05-07 14:34 41.07465 22.50724 11997 ft 389 kts 192°
2026-05-07 14:34 41.04802 22.50192 11353 ft 384 kts 192°
2026-05-07 14:35 41.02218 22.49686 11211 ft 367 kts 192°
2026-05-07 14:35 40.99747 22.49210 11041 ft 351 kts 192°
2026-05-07 14:35 40.97373 22.48762 10876 ft 338 kts 192°
2026-05-07 14:35 40.95092 22.48330 10741 ft 325 kts 192°
2026-05-07 14:36 40.92896 22.47918 10603 ft 314 kts 192°
2026-05-07 14:36 40.90770 22.47517 10479 ft 303 kts 192°
2026-05-07 14:36 40.88746 22.47132 10355 ft 293 kts 192°
2026-05-07 14:36 40.86762 22.46756 10238 ft 283 kts 192°
2026-05-07 14:37 40.84840 22.46393 10116 ft 275 kts 192°
2026-05-07 14:37 40.81087 22.45689 9551 ft 270 kts 192°
2026-05-07 14:37 40.79226 22.45385 9264 ft 270 kts 184°
2026-05-07 14:38 40.77386 22.45945 8943 ft 279 kts 154°
2026-05-07 14:38 40.75900 22.47567 8738 ft 280 kts 131°
2026-05-07 14:38 40.74808 22.49695 8474 ft 280 kts 125°
2026-05-07 14:38 40.73780 22.51876 8199 ft 279 kts 124°
2026-05-07 14:39 40.72759 22.54049 7929 ft 279 kts 124°
2026-05-07 14:39 40.71735 22.56206 7629 ft 278 kts 125°
2026-05-07 14:39 40.70706 22.58353 7355 ft 276 kts 125°
2026-05-07 14:39 40.69677 22.60487 7080 ft 276 kts 125°
2026-05-07 14:40 40.68647 22.62612 6798 ft 275 kts 125°
2026-05-07 14:40 40.67620 22.64729 6524 ft 274 kts 125°
2026-05-07 14:40 40.66953 22.66138 6327 ft 274 kts 120°
2026-05-07 14:40 40.66650 22.69380 5932 ft 277 kts 73°
2026-05-07 14:41 40.67603 22.71554 5679 ft 275 kts 45°
2026-05-07 14:41 40.69036 22.73205 5395 ft 273 kts 40°
2026-05-07 14:41 40.70437 22.74922 5028 ft 276 kts 46°
2026-05-07 14:41 40.71309 22.76183 4851 ft 275 kts 50°
2026-05-07 14:42 40.72456 22.78163 4682 ft 269 kts 56°
2026-05-07 14:42 40.73440 22.80222 4551 ft 261 kts 60°
2026-05-07 14:42 40.74277 22.82309 4427 ft 254 kts 65°
2026-05-07 14:42 40.75001 22.84401 4316 ft 247 kts 67°
2026-05-07 14:43 40.75450 22.86527 4180 ft 238 kts 92°
2026-05-07 14:43 40.74935 22.88511 4020 ft 229 kts 131°
2026-05-07 14:43 40.73647 22.89645 3818 ft 223 kts 159°
2026-05-07 14:43 40.72216 22.90389 3567 ft 218 kts 159°
2026-05-07 14:44 40.70799 22.90956 3293 ft 207 kts 166°
2026-05-07 14:44 40.69440 22.91385 3070 ft 194 kts 167°
2026-05-07 14:44 40.68210 22.91765 2990 ft 174 kts 167°
2026-05-07 14:44 40.67072 22.92131 2835 ft 160 kts 166°
2026-05-07 14:45 40.66031 22.92477 2639 ft 153 kts 163°
2026-05-07 14:45 40.64958 22.92866 2473 ft 172 kts 165°
2026-05-07 14:45 40.63793 22.93221 2230 ft 172 kts 165°
2026-05-07 14:45 40.62642 22.93587 1985 ft 168 kts 166°
2026-05-07 14:46 40.61518 22.93948 1767 ft 166 kts 165°
2026-05-07 14:46 40.60395 22.94318 1549 ft 166 kts 164°
2026-05-07 14:46 40.59308 22.94674 1345 ft 161 kts 165°
2026-05-07 14:46 40.58250 22.95025 1113 ft 151 kts 165°
2026-05-07 14:47 40.57254 22.95355 904 ft 146 kts 161°
2026-05-07 14:47 40.56286 22.95760 708 ft 147 kts 162°
2026-05-07 14:47 40.55281 22.96087 495 ft 151 kts 171°
2026-05-07 14:47 40.54273 22.96383 339 ft 149 kts 168°
2026-05-07 14:48 40.53264 22.96699 125 ft 148 kts 172°
2026-05-07 14:48 40.52290 22.96997 29 ft 134 kts 164°
2026-05-07 14:48 40.51551 22.97232 29 ft 59 kts 168°
2026-05-07 14:48 40.51241 22.97331 29 ft 39 kts 165°
2026-05-07 14:49 40.50997 22.97411 27 ft 18 kts 155°
2026-05-07 14:49 40.50978 22.97554 27 ft 17 kts 50°
2026-05-07 14:49 40.51091 22.97557 28 ft 17 kts 344°
2026-05-07 14:49 40.51205 22.97521 28 ft 18 kts 347°
2026-05-07 14:50 40.51345 22.97474 28 ft 24 kts 346°
2026-05-07 14:50 40.51508 22.97424 28 ft 23 kts 349°
2026-05-07 14:50 40.51661 22.97377 28 ft 23 kts 347°
2026-05-07 14:50 40.51811 22.97328 27 ft 22 kts 346°
2026-05-07 14:51 40.51957 22.97285 27 ft 21 kts 346°
2026-05-07 14:51 40.52099 22.97237 27 ft 21 kts 347°
2026-05-07 14:51 40.52236 22.97192 27 ft 20 kts 344°
2026-05-07 14:51 40.52334 22.97163 27 ft 12 kts
2026-05-07 14:52 40.52393 22.97223 27 ft 4 kts 44°
2026-05-07 14:52 40.52421 22.97240 27 ft 5 kts 34°
2026-05-07 14:52 40.52447 22.97267 28 ft 5 kts 41°
2026-05-07 14:52 40.52472 22.97297 27 ft 5 kts 43°
2026-05-07 14:53 40.52500 22.97332 27 ft 1 kts 42°
2026-05-07 14:53 40.52503 22.97336 27 ft 0 kts 41°
2026-05-07 15:00 40.52503 22.97335 28 ft 0 kts 41°